Weather History for Managua, Nicaragua

Change the Weather History Date:

Tuesday, July 23, 2013

  Actual Average Record
Temperature  
Mean Temperature 80 °F -  
Max Temperature 86 °F 89 °F 95 °F (1997)
Min Temperature 73 °F 71 °F 39 °F (2010)
Cooling Degree Days 14    
Growing Degree Days 30 (Base 50)    
Moisture  
Dew Point 73 °F    
Average Humidity 81    
Maximum Humidity 94    
Minimum Humidity 66    
Precipitation  
Precipitation 0.00 in - - ()
Sea Level Pressure  
Sea Level Pressure 29.85 in    
Wind  
Wind Speed 7 mph ()    
Max Wind Speed 16 mph    
Max Gust Speed -    
Visibility 5.7 miles    
Events Rain , Thunderstorm    
Averages and records for this station are not official NWS values.
T = Trace of Precipitation, MM = Missing Value Source: Averaged Metar Reports

Daily Weather History Graph

Daily Weather History Graph

Search for Another Location

Airport:

Trip Planner

Search our weather history database for the weather conditions in past years. The results will help you decide how hot, cold, wet, or windy it might be!

Date:

Astronomy

Jul. 23, 2013 Rise Set
Actual Time 5:29 AM CST 6:12 PM CST
Civil Twilight 5:06 AM CST 6:35 PM CST
Nautical Twilight 4:40 AM CST 7:01 PM CST
Astronomical Twilight 4:13 AM CST 7:28 PM CST
Moon 7:07 PM CST (7/23) 6:17 AM CST (7/23)
Length of Visible Light 13h 28m
Length of Day
12h 43m
Full, 99% of the Moon is Illuminated
Jul 23
Full
Jul 29
Last Quarter
Aug 6
New
Aug 14
First Quarter
Aug 20
Full

Hourly Weather History & Observations

Time (CST) Temp. Heat Index Dew Point Humidity Pressure Visibility Wind Dir Wind Speed Gust Speed Precip Events Conditions
12:00 AM 73.4 °F - 71.6 °F 94% 29.89 in 6.2 mi SSE 6.9 mph - N/A   Scattered Clouds
1:00 AM 75.2 °F - 71.6 °F 89% 29.86 in 6.2 mi SE 6.9 mph - N/A   Mostly Cloudy
2:00 AM 75.2 °F - 71.6 °F 89% 29.83 in 6.2 mi SE 4.6 mph - N/A   Mostly Cloudy
3:00 AM 75.2 °F - 71.6 °F 89% 29.83 in 6.2 mi ESE 6.9 mph - N/A   Mostly Cloudy
4:00 AM 75.2 °F - 71.6 °F 89% 29.83 in 6.2 mi SSE 6.9 mph - N/A   Mostly Cloudy
5:00 AM 75.2 °F - 71.6 °F 89% 29.83 in 6.2 mi ESE 9.2 mph - N/A   Scattered Clouds
6:00 AM 75.2 °F - 71.6 °F 89% 29.86 in 6.2 mi SE 6.9 mph - N/A   Scattered Clouds
6:45 AM 75.2 °F - 71.6 °F 89% 29.86 in 6.2 mi SE 6.9 mph - N/A   Scattered Clouds
7:00 AM 78.8 °F - 71.6 °F 78% 29.86 in 6.2 mi ESE 6.9 mph - N/A   Scattered Clouds
8:00 AM 82.4 °F 87.2 °F 71.6 °F 70% 29.89 in 6.2 mi East 11.5 mph - N/A   Partly Cloudy
9:00 AM 86.0 °F 99.3 °F 78.8 °F 79% 29.89 in 3.7 mi ENE 13.8 mph - N/A Rain Rain
10:00 AM 84.2 °F 96.1 °F 78.8 °F 84% 29.89 in 3.7 mi East 11.5 mph - N/A Thunderstorm Light Thunderstorm
11:00 AM 84.2 °F 96.1 °F 78.8 °F 84% 29.89 in 2.5 mi East 16.1 mph - N/A Rain Rain Showers
12:00 PM 84.2 °F 90.9 °F 73.4 °F 70% 29.86 in 4.3 mi NNE 4.6 mph - N/A   Drizzle
1:00 PM 84.2 °F 92.3 °F 75.2 °F 74% 29.86 in 5.6 mi East 13.8 mph - N/A   Light Drizzle
2:00 PM 86.0 °F 95.1 °F 75.2 °F 70% 29.83 in 6.2 mi NNE 9.2 mph - N/A   Scattered Clouds
3:00 PM 82.4 °F 86.3 °F 69.8 °F 66% 29.80 in 6.2 mi NE 9.2 mph - N/A   Partly Cloudy
4:00 PM 82.4 °F 87.2 °F 71.6 °F 70% 29.80 in 6.2 mi East 13.8 mph - N/A   Scattered Clouds
5:00 PM 82.4 °F 87.2 °F 71.6 °F 70% 29.80 in 6.2 mi ESE 13.8 mph - N/A   Scattered Clouds
6:00 PM 80.6 °F 84.6 °F 71.6 °F 74% 29.80 in 6.2 mi ESE 9.2 mph - N/A   Scattered Clouds
7:00 PM 78.8 °F - 73.4 °F 83% 29.83 in 6.2 mi SE 4.6 mph - N/A   Partly Cloudy
8:00 PM 77.0 °F - 73.4 °F 89% 29.83 in 6.2 mi ESE 4.6 mph - N/A   Partly Cloudy
9:00 PM 77.0 °F - 73.4 °F 89% 29.83 in 6.2 mi SE 4.6 mph - N/A   Partly Cloudy
10:00 PM 77.0 °F - 73.4 °F 89% 29.86 in 6.2 mi SE 4.6 mph - N/A   Partly Cloudy